Aérodrome :
LOGIN :

S'inscrire | Disclaimer

   EN    FR    IT 

 










Légende :    VFR   VFR Marginal   IFR   IFR Intensif   IFR Très Intensif
Visi : 
Plafond : 
>= 8 km
>= 3000ft
5 à 8 km
1000 à 3000 ft
1500m à 5 km
500 à 1000 ft
800 à 1500m
200 à 500 ft
< 800m
< 200 ft
Symboles :   Orages  Brouillard  Fortes neiges  Fortes précipitations  Vent > 20 kt
SIGMETs :   Divers  Orages  Givrage  Turbulence  Onde Orograph.  Cendres Volcan.






- Altitude de l'aérodrome : 194 ft
- Code IATA : LME


LFRM - Le Mans

DERNIER METAR :
  • 011430Z AUTO 25009KT 200V300 9999 FEW042 BKN090 22/12 Q1013 TEMPO 4500 -SHRA BKN030TCU

METARs EXPIRÉS :
  • 011400Z AUTO 26008KT 210V310 9999 SCT042 BKN048 BKN056 22/12 Q1013 TEMPO 4500 -SHRA BKN030TCU
  • 011330Z AUTO 22007KT 150V270 9999 FEW038 SCT054 BKN090 22/12 Q1013 TEMPO 4500 -SHRA BKN030TCU
  • 011300Z AUTO 23004KT 190V260 CAVOK 20/13 Q1014 TEMPO 4500 -SHRA BKN030TCU
  • 011230Z AUTO 24006KT 200V280 9999 -RA FEW013 BKN072 OVC082 18/14 Q1014 TEMPO 4500 -SHRA BKN030TCU
  • 011200Z AUTO 25009KT 190V290 9999 SCT034/// BKN094/// ///TCU 20/12 Q1014 TEMPO 4500 -SHRA

Prévision TAF périmée.



MET'MAP, la Météo Aéronautique d'un coup d'oeil ! - Copyright ORBIFLY Décembre 2007 - Disclaimer

ORBIFLY MET'MAP TEAM :

Programmation & Développement : Alexandra Zaïnal
Sur une idée originale de : Baudouin d'Aumeries
Assistance à la programmation : Marc-Olivier Méhu
Soutien technique & logistique : Manuel Goepfert

Contact : metmap@orbifly.com




SOURCES & CREDITS :

   NOAA